Voltar ao catálogo

STARLINK-34349

AtivoComunicaçõesVLEO
NORAD 64215·PAYLOAD·🇺🇸 United States

Lançado May 31, 2025 de Vandenberg Space Force Base

Loading…

Próximas Passagens (próximas 24 horas)

TLE

AtualizadoSource: CelesTrak SupGP

Época: Sep 15, 2026, 04:01 UTC

1 64215C 25117N   26258.16784722 -.00047273  00000+0 -13968-2 0  2585
2 64215  53.1578 236.3699 0001573  86.4670 132.9532 15.34412073    10

Acompanhe STARLINK-34349 em tempo real com AllMySat

Download on the App Store